This is the latest recevied weather packets stored in our database for station/object W4NDF-13. If no packets are shown the sender has not sent any weather packets the latest 10 day(s).
| Time | Temp. | Humidity | Pressure | Rain* | Wind** | Luminosity | Snow |
|---|---|---|---|---|---|---|---|
| 1777141288 | 27.78° C | 68% | 1011.3 hPa | 0 mm | - | 768 W/m² | - |
| 1777140984 | 26.11° C | 70% | 1011.3 hPa | 0 mm | - | 515 W/m² | - |
| 1777140681 | 26.67° C | 74% | 1011.3 hPa | 0 mm | - | 442 W/m² | - |
| 1777140378 | 26.11° C | 75% | 1011.6 hPa | 0 mm | - | 838 W/m² | - |
| 1777140076 | 26.11° C | 74% | 1011.5 hPa | 0 mm | - | 794 W/m² | - |
| 1777139773 | 26.11° C | 74% | 1011.6 hPa | 0 mm | - | 631 W/m² | - |
| 1777139469 | 26.11° C | 73% | 1011.6 hPa | 0 mm | - | 322 W/m² | - |
| 1777139164 | 26.11° C | 75% | 1011.5 hPa | 0 mm | - | 354 W/m² | - |
| 1777138861 | 26.67° C | 74% | 1011.5 hPa | 0 mm | - | 839 W/m² | - |
| 1777138556 | 27.22° C | 72% | 1011.4 hPa | 0 mm | - | 773 W/m² | - |
| 1777138253 | 26.11° C | 73% | 1011.7 hPa | 0 mm | - | 543 W/m² | - |
| 1777137950 | 26.67° C | 72% | 1011.9 hPa | 0 mm | - | 805 W/m² | - |
| 1777137645 | 26.11° C | 73% | 1011.7 hPa | 0 mm | - | 817 W/m² | - |
| 1777137343 | 25.56° C | 74% | 1011.9 hPa | 0 mm | - | 732 W/m² | - |
| 1777137039 | 26.11° C | 73% | 1011.8 hPa | 0 mm | - | 807 W/m² | - |
| 1777136736 | 25° C | 76% | 1012 hPa | 0 mm | - | 780 W/m² | - |
| 1777136434 | 24.44° C | 78% | 1012 hPa | 0 mm | - | 769 W/m² | - |
| 1777136131 | 25° C | 77% | 1012.2 hPa | 0 mm | - | 753 W/m² | - |
| 1777135827 | 23.89° C | 78% | 1012.2 hPa | 0 mm | - | 760 W/m² | - |
| 1777135523 | 24.44° C | 79% | 1012.4 hPa | 0 mm | - | 715 W/m² | - |
| 1777135220 | 24.44° C | 78% | 1012.6 hPa | 0 mm | - | 749 W/m² | - |
| 1777134917 | 24.44° C | 78% | 1012.3 hPa | 0 mm | - | 765 W/m² | - |
| 1777134614 | 24.44° C | 81% | 1012.5 hPa | 0 mm | - | 791 W/m² | - |
| 1777134309 | 23.89° C | 82% | 1012.7 hPa | 0 mm | - | 652 W/m² | - |
| 1777134007 | 23.33° C | 83% | 1012.6 hPa | 0 mm | - | 731 W/m² | - |
* Rain latest hour (hover to see other rain measurements)
** Current wind speed in m/s (hover to see current wind gust speed)